{"data":{"norad_id":60012,"epoch":"2026-09-22T23:48:28.474272Z","epoch_age_seconds":63247,"freshness":"FRESH","line1":"1 60012U 24110A   26265.99199623  .00004012  00000+0  25288-3 0  9990","line2":"2 60012  97.5682 356.8076 0023147 218.8106 141.1461 15.09491210126690","mean_motion":15.0949121,"eccentricity":0.0023147,"inclination_deg":97.5682,"raan_deg":356.8076,"arg_perigee_deg":218.8106,"mean_anomaly_deg":141.1461,"bstar":0.00025288,"rev_number":12669,"period_min":95.396381937196,"perigee_km":521.74540413739,"apogee_km":553.76182815578,"semimajor_km":6915.8906161466,"source":"CELESTRAK","updated_at":"2026-09-23T09:00:20.362328Z"}}